DLH4D EGLL-EDDF

Flight info

Callsign DLH4D
Flight time 0h 52m
Altitude 35000
Route DET L6 DVR UL9 KONAN UL607 SPI T180 NIVNU T847 IMCOM IMCOM1D
Aircraft A20N/M-SDE2E3FGHIRWXY/LB1

Departure

Time 2026-04-14 10:05
Airport London Heathrow Airport (EGLL)

Arrival

Time 2026-04-14 10:58
Airport Frankfurt Main Airport (EDDF)
Time Latitude Longitude Altitude Speed Heading
2026-04-14 09:38 51.47054 -0.47519 81 ft 0 kts 270°
2026-04-14 09:55 51.47054 -0.47501 81 ft 2 kts 269°
2026-04-14 09:55 51.47055 -0.47476 81 ft 2 kts 270°
2026-04-14 09:55 51.47055 -0.47452 81 ft 2 kts 270°
2026-04-14 09:55 51.47055 -0.47429 81 ft 1 kts 270°
2026-04-14 09:56 51.47055 -0.47413 81 ft 2 kts 262°
2026-04-14 09:56 51.47059 -0.47391 81 ft 2 kts 240°
2026-04-14 09:56 51.47069 -0.47372 81 ft 2 kts 221°
2026-04-14 09:56 51.47081 -0.47359 82 ft 2 kts 201°
2026-04-14 09:57 51.47095 -0.47353 82 ft 0 kts 183°
2026-04-14 09:57 51.47101 -0.47353 82 ft 1 kts 179°
2026-04-14 09:57 51.47102 -0.47353 82 ft 0 kts 179°
2026-04-14 10:00 51.47098 -0.47353 82 ft 3 kts 179°
2026-04-14 10:01 51.47039 -0.47352 81 ft 12 kts 179°
2026-04-14 10:01 51.46940 -0.47352 81 ft 14 kts 181°
2026-04-14 10:01 51.46838 -0.47352 81 ft 14 kts 180°
2026-04-14 10:01 51.46732 -0.47349 79 ft 16 kts 179°
2026-04-14 10:02 51.46655 -0.47441 80 ft 14 kts 266°
2026-04-14 10:02 51.46655 -0.47600 81 ft 14 kts 270°
2026-04-14 10:02 51.46653 -0.47767 81 ft 15 kts 271°
2026-04-14 10:02 51.46653 -0.47926 81 ft 10 kts 270°
2026-04-14 10:03 51.46653 -0.48011 81 ft 5 kts 270°
2026-04-14 10:03 51.46652 -0.48048 80 ft 0 kts 270°
2026-04-14 10:03 51.46652 -0.48083 80 ft 8 kts 269°
2026-04-14 10:04 51.46651 -0.48225 79 ft 16 kts 270°
2026-04-14 10:04 51.46648 -0.48417 77 ft 15 kts 255°
2026-04-14 10:04 51.46555 -0.48468 77 ft 15 kts 179°
2026-04-14 10:04 51.46477 -0.48407 78 ft 13 kts 103°
2026-04-14 10:05 51.46480 -0.48213 78 ft 39 kts 91°
2026-04-14 10:05 51.46483 -0.47283 78 ft 124 kts 90°
2026-04-14 10:05 51.46484 -0.45542 256 ft 174 kts 94°
2026-04-14 10:05 51.46500 -0.43652 1143 ft 173 kts 93°
2026-04-14 10:06 51.46469 -0.41760 2063 ft 171 kts 105°
2026-04-14 10:06 51.46183 -0.39940 2832 ft 177 kts 111°
2026-04-14 10:06 51.45830 -0.38001 3523 ft 189 kts 112°
2026-04-14 10:06 51.45436 -0.35909 4203 ft 205 kts 112°
2026-04-14 10:07 51.44999 -0.33664 4951 ft 220 kts 112°
2026-04-14 10:07 51.44525 -0.31290 5780 ft 231 kts 113°
2026-04-14 10:07 51.44028 -0.28846 6626 ft 239 kts 113°
2026-04-14 10:07 51.43494 -0.26268 7457 ft 248 kts 114°
2026-04-14 10:08 51.42946 -0.23657 8303 ft 254 kts 114°
2026-04-14 10:08 51.42366 -0.20940 9048 ft 265 kts 114°
2026-04-14 10:08 51.41749 -0.18074 9643 ft 282 kts 114°
2026-04-14 10:08 51.41092 -0.15036 10293 ft 297 kts 113°
2026-04-14 10:09 51.40422 -0.11875 10978 ft 309 kts 111°
2026-04-14 10:09 51.39870 -0.08461 11595 ft 326 kts 105°
2026-04-14 10:09 51.39424 -0.04836 12110 ft 343 kts 103°
2026-04-14 10:09 51.38962 -0.01019 12851 ft 351 kts 104°
2026-04-14 10:10 51.38471 0.02794 13646 ft 357 kts 105°
2026-04-14 10:10 51.37941 0.06710 14414 ft 363 kts 105°
2026-04-14 10:10 51.37389 0.10674 15157 ft 370 kts 106°
2026-04-14 10:10 51.36825 0.14680 15882 ft 376 kts 106°
2026-04-14 10:11 51.36242 0.18812 16601 ft 382 kts 106°
2026-04-14 10:11 51.35654 0.22974 17295 ft 389 kts 107°
2026-04-14 10:11 51.35054 0.27216 17974 ft 395 kts 107°
2026-04-14 10:11 51.34450 0.31472 18628 ft 401 kts 107°
2026-04-14 10:12 51.33827 0.35853 19276 ft 407 kts 107°
2026-04-14 10:12 51.33196 0.40272 19908 ft 413 kts 107°
2026-04-14 10:12 51.32550 0.44777 20536 ft 418 kts 107°
2026-04-14 10:12 51.31899 0.49315 21154 ft 424 kts 108°
2026-04-14 10:13 51.31235 0.53927 21792 ft 429 kts 108°
2026-04-14 10:13 51.30563 0.58569 22459 ft 432 kts 108°
2026-04-14 10:13 51.29789 0.63192 23063 ft 436 kts 111°
2026-04-14 10:13 51.28942 0.67866 23638 ft 441 kts 113°
2026-04-14 10:14 51.28072 0.72575 24201 ft 446 kts 113°
2026-04-14 10:14 51.27190 0.77330 24746 ft 451 kts 113°
2026-04-14 10:14 51.26296 0.82159 25276 ft 456 kts 113°
2026-04-14 10:14 51.25399 0.87005 25791 ft 461 kts 113°
2026-04-14 10:15 51.24497 0.91884 26316 ft 465 kts 113°
2026-04-14 10:15 51.23572 0.96879 26824 ft 469 kts 114°
2026-04-14 10:15 51.22652 1.01834 27308 ft 474 kts 114°
2026-04-14 10:15 51.21714 1.06873 27797 ft 477 kts 114°
2026-04-14 10:16 51.20767 1.11952 28274 ft 481 kts 114°
2026-04-14 10:16 51.19806 1.17088 28727 ft 485 kts 114°
2026-04-14 10:16 51.18840 1.22230 29094 ft 488 kts 114°
2026-04-14 10:17 51.16966 1.32647 29173 ft 493 kts 110°
2026-04-14 10:17 51.15815 1.43460 29174 ft 500 kts 100°
2026-04-14 10:18 51.15061 1.60059 29175 ft 501 kts 98°
2026-04-14 10:18 51.14547 1.71113 29235 ft 505 kts 99°
2026-04-14 10:19 51.14268 1.76698 29630 ft 508 kts 99°
2026-04-14 10:19 51.13984 1.82300 30071 ft 509 kts 99°
2026-04-14 10:19 51.13697 1.87919 30432 ft 513 kts 99°
2026-04-14 10:19 51.13403 1.93611 30761 ft 517 kts 99°
2026-04-14 10:20 51.13107 1.99278 31078 ft 520 kts 99°
2026-04-14 10:20 51.12802 2.05063 31392 ft 524 kts 99°
2026-04-14 10:20 51.12495 2.10832 31695 ft 527 kts 99°
2026-04-14 10:20 51.12183 2.16633 32043 ft 529 kts 99°
2026-04-14 10:21 51.11869 2.22452 32461 ft 529 kts 99°
2026-04-14 10:21 51.11552 2.28266 32784 ft 532 kts 99°
2026-04-14 10:21 51.11227 2.34145 33065 ft 535 kts 99°
2026-04-14 10:21 51.10901 2.40026 33418 ft 536 kts 99°
2026-04-14 10:22 51.10571 2.45917 33808 ft 536 kts 99°
2026-04-14 10:22 51.10240 2.51765 34174 ft 537 kts 99°
2026-04-14 10:22 51.09900 2.57687 34543 ft 537 kts 100°
2026-04-14 10:22 51.09448 2.63555 34928 ft 533 kts 105°
2026-04-14 10:23 51.08754 2.69290 35313 ft 527 kts 111°
2026-04-14 10:23 51.07825 2.74861 35682 ft 522 kts 114°
2026-04-14 10:23 51.06811 2.80355 36022 ft 520 kts 115°
2026-04-14 10:23 51.05773 2.85852 36337 ft 520 kts 115°
2026-04-14 10:24 51.04734 2.91379 36631 ft 520 kts 115°
2026-04-14 10:24 51.03716 2.96831 36880 ft 521 kts 114°
2026-04-14 10:24 51.02692 3.02345 37108 ft 522 kts 113°
2026-04-14 10:24 51.01671 3.07869 37348 ft 523 kts 112°
2026-04-14 10:25 51.00637 3.13465 37593 ft 524 kts 112°
2026-04-14 10:25 50.99619 3.18991 37831 ft 525 kts 112°
2026-04-14 10:25 50.98592 3.24557 38080 ft 525 kts 111°
2026-04-14 10:25 50.97578 3.30032 38326 ft 525 kts 111°
2026-04-14 10:26 50.96548 3.35571 38570 ft 524 kts 111°
2026-04-14 10:26 50.95511 3.41125 38807 ft 524 kts 111°
2026-04-14 10:26 50.94477 3.46638 39036 ft 524 kts 111°
2026-04-14 10:26 50.93435 3.52181 39190 ft 525 kts 111°
2026-04-14 10:27 50.91360 3.63155 39199 ft 522 kts 110°
2026-04-14 10:27 50.89251 3.74158 39199 ft 518 kts 111°
2026-04-14 10:28 50.87159 3.84951 39200 ft 515 kts 111°
2026-04-14 10:28 50.85060 3.95744 39199 ft 515 kts 111°
2026-04-14 10:29 50.82940 4.06587 39199 ft 515 kts 111°
2026-04-14 10:29 50.80832 4.17311 39199 ft 515 kts 111°
2026-04-14 10:30 50.78702 4.28085 39199 ft 515 kts 111°
2026-04-14 10:30 50.76564 4.38840 39199 ft 515 kts 111°
2026-04-14 10:31 50.74419 4.49578 39199 ft 515 kts 111°
2026-04-14 10:31 50.72252 4.60359 39198 ft 515 kts 111°
2026-04-14 10:32 50.70157 4.71116 39197 ft 515 kts 111°
2026-04-14 10:32 50.68074 4.81906 39199 ft 515 kts 111°
2026-04-14 10:33 50.65980 4.92587 39199 ft 514 kts 111°
2026-04-14 10:33 50.63793 5.03293 39199 ft 514 kts 111°
2026-04-14 10:34 50.60475 5.19330 39199 ft 514 kts 111°
2026-04-14 10:35 50.58266 5.29974 39199 ft 514 kts 111°
2026-04-14 10:35 50.56052 5.40583 39199 ft 514 kts 111°
2026-04-14 10:36 50.53816 5.51246 39199 ft 514 kts 111°
2026-04-14 10:36 50.51573 5.61899 39199 ft 514 kts 110°
2026-04-14 10:37 50.49540 5.72591 39006 ft 514 kts 109°
2026-04-14 10:37 50.48536 5.77998 38214 ft 521 kts 109°
2026-04-14 10:37 50.47515 5.83474 37310 ft 527 kts 109°
2026-04-14 10:37 50.46478 5.89011 36577 ft 528 kts 109°
2026-04-14 10:38 50.45447 5.94502 35940 ft 527 kts 109°
2026-04-14 10:38 50.44418 5.99953 35305 ft 527 kts 109°
2026-04-14 10:38 50.43371 6.05468 34612 ft 527 kts 109°
2026-04-14 10:38 50.42323 6.10968 33887 ft 528 kts 109°
2026-04-14 10:39 50.41272 6.16478 33155 ft 529 kts 109°
2026-04-14 10:39 50.40218 6.21984 32487 ft 527 kts 109°
2026-04-14 10:39 50.39177 6.27413 31870 ft 525 kts 109°
2026-04-14 10:39 50.38115 6.32921 30741 ft 532 kts 109°
2026-04-14 10:40 50.37057 6.38443 29307 ft 537 kts 107°
2026-04-14 10:40 50.36249 6.44142 27779 ft 542 kts 100°
2026-04-14 10:40 50.35794 6.49962 26297 ft 542 kts 96°
2026-04-14 10:40 50.35449 6.55726 24793 ft 541 kts 95°
2026-04-14 10:41 50.35113 6.61554 23319 ft 536 kts 95°
2026-04-14 10:41 50.34769 6.67276 22335 ft 520 kts 97°
2026-04-14 10:41 50.34416 6.72822 21364 ft 506 kts 97°
2026-04-14 10:41 50.34058 6.78207 20303 ft 496 kts 97°
2026-04-14 10:42 50.33669 6.83490 19224 ft 486 kts 101°
2026-04-14 10:42 50.32845 6.88482 18157 ft 474 kts 112°
2026-04-14 10:42 50.31593 6.93147 17126 ft 462 kts 117°
2026-04-14 10:42 50.30268 6.97613 16077 ft 453 kts 118°
2026-04-14 10:43 50.28930 7.02036 15104 ft 451 kts 117°
2026-04-14 10:43 50.27605 7.06438 14601 ft 440 kts 117°
2026-04-14 10:43 50.26340 7.10677 14329 ft 424 kts 117°
2026-04-14 10:43 50.25122 7.14788 14080 ft 409 kts 117°
2026-04-14 10:44 50.23943 7.18772 13830 ft 396 kts 117°
2026-04-14 10:44 50.22816 7.22584 13583 ft 383 kts 117°
2026-04-14 10:44 50.21712 7.26316 13334 ft 372 kts 117°
2026-04-14 10:44 50.20655 7.29886 13092 ft 361 kts 117°
2026-04-14 10:45 50.19611 7.33408 12855 ft 351 kts 117°
2026-04-14 10:45 50.18608 7.36790 12627 ft 342 kts 117°
2026-04-14 10:45 50.17621 7.40108 12336 ft 335 kts 117°
2026-04-14 10:45 50.16638 7.43408 11998 ft 331 kts 117°
2026-04-14 10:46 50.15678 7.46625 11646 ft 328 kts 116°
2026-04-14 10:46 50.14718 7.49837 11271 ft 326 kts 116°
2026-04-14 10:46 50.13753 7.53057 10885 ft 325 kts 116°
2026-04-14 10:46 50.12804 7.56230 10509 ft 323 kts 116°
2026-04-14 10:47 50.11869 7.59354 10201 ft 318 kts 116°
2026-04-14 10:47 50.10949 7.62426 10092 ft 306 kts 116°
2026-04-14 10:47 50.10059 7.65381 9725 ft 304 kts 116°
2026-04-14 10:47 50.09160 7.68368 9381 ft 302 kts 116°
2026-04-14 10:48 50.08273 7.71333 9046 ft 299 kts 116°
2026-04-14 10:48 50.07404 7.74222 8696 ft 297 kts 116°
2026-04-14 10:48 50.06527 7.77115 8366 ft 294 kts 115°
2026-04-14 10:48 50.05659 7.79985 8043 ft 292 kts 115°
2026-04-14 10:49 50.04803 7.82816 7717 ft 289 kts 115°
2026-04-14 10:49 50.03949 7.85648 7389 ft 287 kts 116°
2026-04-14 10:49 50.03109 7.88417 7065 ft 285 kts 115°
2026-04-14 10:49 50.02259 7.91220 6734 ft 283 kts 115°
2026-04-14 10:50 50.01422 7.93973 6408 ft 281 kts 115°
2026-04-14 10:50 50.00589 7.96711 6085 ft 280 kts 115°
2026-04-14 10:50 49.99759 7.99438 5762 ft 278 kts 115°
2026-04-14 10:50 49.98935 8.02140 5499 ft 273 kts 115°
2026-04-14 10:51 49.98147 8.04722 5474 ft 258 kts 115°
2026-04-14 10:51 49.97403 8.07156 5452 ft 244 kts 115°
2026-04-14 10:51 49.96691 8.09486 5419 ft 231 kts 115°
2026-04-14 10:51 49.96018 8.11685 5379 ft 218 kts 115°
2026-04-14 10:52 49.95556 8.13880 5271 ft 213 kts 92°
2026-04-14 10:52 49.95648 8.16163 4924 ft 218 kts 75°
2026-04-14 10:52 49.96119 8.18433 4523 ft 219 kts 64°
2026-04-14 10:52 49.96695 8.20502 5117 ft 210 kts 63°
2026-04-14 10:53 49.97264 8.22566 4865 ft 208 kts 64°
2026-04-14 10:53 49.97805 8.24618 4632 ft 195 kts 66°
2026-04-14 10:53 49.98215 8.26515 4515 ft 176 kts 68°
2026-04-14 10:53 49.98578 8.28258 4262 ft 168 kts 68°
2026-04-14 10:54 49.98968 8.29955 3912 ft 164 kts 66°
2026-04-14 10:54 49.99367 8.31582 3537 ft 161 kts 65°
2026-04-14 10:54 49.99773 8.33188 3151 ft 160 kts 64°
2026-04-14 10:54 50.00168 8.34787 2766 ft 158 kts 67°
2026-04-14 10:55 50.00530 8.36388 2414 ft 154 kts 67°
2026-04-14 10:55 50.00897 8.37924 2071 ft 151 kts 66°
2026-04-14 10:55 50.01253 8.39410 1753 ft 146 kts 65°
2026-04-14 10:55 50.01599 8.40845 1504 ft 136 kts 66°
2026-04-14 10:56 50.01926 8.42208 1309 ft 134 kts 66°
2026-04-14 10:56 50.02244 8.43578 1165 ft 134 kts 67°
2026-04-14 10:56 50.02556 8.44927 996 ft 133 kts 66°
2026-04-14 10:56 50.02875 8.46264 826 ft 132 kts 67°
2026-04-14 10:57 50.03203 8.47614 625 ft 131 kts 66°
2026-04-14 10:57 50.03520 8.48928 467 ft 131 kts 67°
2026-04-14 10:57 50.03832 8.50246 339 ft 122 kts 68°
2026-04-14 10:57 50.04076 8.51248 359 ft 74 kts 69°
2026-04-14 10:58 50.04206 8.51777 357 ft 42 kts 70°
2026-04-14 10:58 50.04231 8.52202 358 ft 37 kts 97°
2026-04-14 10:58 50.04194 8.52576 358 ft 33 kts 88°
2026-04-14 10:58 50.04256 8.52912 355 ft 31 kts 69°
2026-04-14 10:59 50.04334 8.53232 350 ft 31 kts 68°
2026-04-14 10:59 50.04394 8.53550 351 ft 30 kts 78°
2026-04-14 10:59 50.04417 8.53878 352 ft 30 kts 84°
2026-04-14 10:59 50.04443 8.54207 352 ft 30 kts 82°
2026-04-14 11:00 50.04443 8.54526 350 ft 29 kts 105°
2026-04-14 11:00 50.04328 8.54758 352 ft 26 kts 150°
2026-04-14 11:00 50.04159 8.54861 350 ft 26 kts 160°
2026-04-14 11:00 50.03994 8.54950 346 ft 20 kts 161°
2026-04-14 11:01 50.03865 8.55038 345 ft 20 kts 137°
2026-04-14 11:01 50.03872 8.55227 347 ft 17 kts 68°
2026-04-14 11:01 50.03918 8.55401 348 ft 17 kts 67°
2026-04-14 11:01 50.03961 8.55578 348 ft 17 kts 69°
2026-04-14 11:02 50.04004 8.55756 348 ft 19 kts 71°
2026-04-14 11:02 50.04051 8.55975 351 ft 21 kts 69°
2026-04-14 11:02 50.04150 8.56083 354 ft 18 kts 344°
2026-04-14 11:02 50.04259 8.56003 357 ft 17 kts 317°
2026-04-14 11:03 50.04358 8.55916 360 ft 16 kts 348°
2026-04-14 11:03 50.04466 8.55926 362 ft 15 kts 19°
2026-04-14 11:03 50.04567 8.55977 363 ft 15 kts
2026-04-14 11:03 50.04649 8.55942 363 ft 7 kts 338°
2026-04-14 11:04 50.04657 8.55937 363 ft 0 kts 339°